Houston, TX

11:53 PM CST on December 24, 2014 (GMT -0600)
SE-Svc-Cntr | Change Station
CLOSE
Current Station
Personal Weather Station
Location: Houston, TX
Elevation: 46 ft
Nearby Weather Stations

Elev 46 ft 29.71 °N, 95.26 °W | Updated 3 seconds ago

Clear
Clear
44.8 °F
Feels Like 45 °F
N
3.0
Wind Variable Wind from East
Gusts 3.0 mph

Today
High -- | Low -- °F
--% Chance of Precip.
Yesterday
High -- | Low -- °F
Precip. -- in
7:13 AM 5:27 PM
Waxing Crescent, 13% visible
Pressure 30.16 in
Visibility 10.0 miles
Clouds Clear
Windchill 45 °F
Dew Point 39 °F
Humidity 80%
Rainfall 0.00 in
Snow Depth Not available.
UV 0 out of 12
Pollen 7.10 out of 12
Air Quality Not available.
Flu Activity Not available.
METAR KHOU 250453Z 17004KT 10SM CLR 06/02 A3014 RMK AO2 SLP212 T00560022

More Conditions Fewer Conditions

Pressure 30.16 in
Visibility 10.0 miles
Clouds Clear
Windchill 45 °F
Dew Point 39 °F
Humidity 80%
Rainfall 0.00 in
Snow Depth Not available.
UV 0 out of 12
Pollen 7.10 out of 12
Air Quality Not available.
Flu Activity Not available.
METAR KHOU 250453Z 17004KT 10SM CLR 06/02 A3014 RMK AO2 SLP212 T00560022

More Conditions Fewer Conditions

10-Day Weather Forecast

Almanac

Astronomy

Dec. 24, 2014 Rise Set
Actual Time
Civil Twilight
Nautical Twilight
Astronomical Twilight
Moon
Length of Visible Light
Length of Day
Tomorrow will be .
, % of the Moon is Illuminated

Today's Extremes

State Highs State Lows

Community

WunderPhotos

Upload Photos

1,780,244 photos uploaded!

WunderBlogs® & News

Nearby

Air Quality

  Air Quality AQ Index Pollutant
Not available.

Snow Depth

Station Depth Elevation

Earthquake Activity

City Distance Mag. Time & Date
Minimum magnitude displayed is 2.5.

Coastal Water Temperatures

Place Temperature

Nearby Weather Stations